Time,TemperatureF,DewpointF,PressureIn,WindDirection,WindDirectionDegrees,WindSpeedMPH,WindSpeedGustMPH,Humidity,HourlyPrecipIn,Conditions,Clouds,dailyrainin,SoftwareType,DateUTC
2013-06-19 00:00:00,68.9,54.0,29.89,SW,225,0.9,0.9,59,0.00,,---,0.00,VWS V14.01,2013-06-19 05:00:00,
2013-06-19 00:05:00,68.9,54.0,29.88,SSW,202,1.1,1.1,59,0.00,,---,0.00,VWS V14.01,2013-06-19 05:05:00,
2013-06-19 00:10:00,68.8,54.4,29.89,WSW,248,1.8,1.8,60,0.00,,---,0.00,VWS V14.01,2013-06-19 05:10:00,
2013-06-19 00:15:00,68.8,54.4,29.89,SW,225,0.7,0.7,60,0.00,,---,0.00,VWS V14.01,2013-06-19 05:15:00,
2013-06-19 00:20:00,68.8,54.4,29.88,SW,225,0.0,1.1,60,0.00,,---,0.00,VWS V14.01,2013-06-19 05:20:00,
2013-06-19 00:25:00,68.8,53.9,29.88,SW,225,0.0,0.0,59,0.00,,---,0.00,VWS V14.01,2013-06-19 05:25:00,
2013-06-19 00:30:00,68.6,53.7,29.89,SW,225,0.0,0.0,59,0.00,,---,0.00,VWS V14.01,2013-06-19 05:30:00,
2013-06-19 00:35:00,68.4,54.0,29.88,SW,225,0.0,0.0,60,0.00,,---,0.00,VWS V14.01,2013-06-19 05:35:00,
2013-06-19 00:40:00,68.2,53.8,29.88,SW,225,0.0,0.0,60,0.00,,---,0.00,VWS V14.01,2013-06-19 05:40:00,
2013-06-19 00:45:00,68.0,54.1,29.89,SW,225,0.0,0.0,61,0.00,,---,0.00,VWS V14.01,2013-06-19 05:45:00,
2013-06-19 00:50:00,67.9,54.0,29.89,WSW,248,0.4,0.4,61,0.00,,---,0.00,VWS V14.01,2013-06-19 05:50:00,
2013-06-19 00:55:00,67.9,54.4,29.89,South,180,0.0,0.0,62,0.00,,---,0.00,VWS V14.01,2013-06-19 05:55:00,
2013-06-19 01:01:00,67.9,54.4,29.89,South,180,0.0,0.0,62,0.00,,---,0.00,VWS V14.01,2013-06-19 06:01:00,
2013-06-19 01:06:00,67.7,54.2,29.90,South,180,0.0,0.0,62,0.00,,---,0.00,VWS V14.01,2013-06-19 06:06:00,
2013-06-19 01:11:00,67.3,54.3,29.89,South,180,0.0,0.0,63,0.00,,---,0.00,VWS V14.01,2013-06-19 06:11:00,
2013-06-19 01:16:00,67.1,54.5,29.89,SSE,158,0.4,0.4,64,0.00,,---,0.00,VWS V14.01,2013-06-19 06:16:00,
2013-06-19 01:21:00,67.0,54.0,29.89,South,180,0.0,0.0,63,0.00,,---,0.00,VWS V14.01,2013-06-19 06:21:00,
2013-06-19 01:26:00,66.8,54.7,29.89,SSW,202,1.1,1.1,65,0.00,,---,0.00,VWS V14.01,2013-06-19 06:26:00,
2013-06-19 01:31:00,66.8,54.7,29.88,SSW,202,0.7,0.7,65,0.00,,---,0.00,VWS V14.01,2013-06-19 06:31:00,
2013-06-19 01:36:00,66.8,55.5,29.88,SSW,202,1.1,1.1,67,0.00,,---,0.00,VWS V14.01,2013-06-19 06:36:00,
2013-06-19 01:41:00,67.0,55.3,29.88,South,180,1.3,1.3,66,0.00,,---,0.00,VWS V14.01,2013-06-19 06:41:00,
2013-06-19 01:46:00,67.0,55.7,29.88,SSW,202,0.7,0.7,67,0.00,,---,0.00,VWS V14.01,2013-06-19 06:46:00,
2013-06-19 01:51:00,67.0,55.7,29.88,SW,225,1.8,1.8,67,0.00,,---,0.00,VWS V14.01,2013-06-19 06:51:00,
2013-06-19 01:56:00,67.0,56.1,29.88,SSW,202,0.4,0.4,68,0.00,,---,0.00,VWS V14.01,2013-06-19 06:56:00,
2013-06-19 02:01:00,67.0,56.1,29.88,SSE,158,1.1,1.1,68,0.00,,---,0.00,VWS V14.01,2013-06-19 07:01:00,
2013-06-19 02:06:00,66.6,56.1,29.89,SSW,202,1.1,1.1,69,0.00,,---,0.00,VWS V14.01,2013-06-19 07:06:00,
2013-06-19 02:11:00,66.6,56.1,29.88,South,180,1.8,1.8,69,0.00,,---,0.00,VWS V14.01,2013-06-19 07:11:00,
2013-06-19 02:16:00,66.4,55.9,29.88,SSE,158,0.2,0.2,69,0.00,,---,0.00,VWS V14.01,2013-06-19 07:16:00,
2013-06-19 02:21:00,66.4,55.9,29.88,SSE,158,0.7,0.7,69,0.00,,---,0.00,VWS V14.01,2013-06-19 07:21:00,
2013-06-19 02:26:00,66.2,56.1,29.88,SSE,158,0.4,0.4,70,0.00,,---,0.00,VWS V14.01,2013-06-19 07:26:00,
2013-06-19 02:31:00,66.1,56.0,29.88,SE,135,0.0,0.0,70,0.00,,---,26.80,VWS V14.01,2013-06-19 07:31:00,
2013-06-19 02:36:00,65.7,55.7,29.88,SSE,158,0.0,0.0,70,0.00,,---,0.00,VWS V14.01,2013-06-19 07:36:00,
2013-06-19 02:41:00,65.5,55.9,29.88,South,180,0.0,0.0,71,0.00,,---,0.00,VWS V14.01,2013-06-19 07:41:00,
2013-06-19 02:46:00,65.3,55.7,29.87,SSW,202,0.0,0.0,71,0.00,,---,0.00,VWS V14.01,2013-06-19 07:46:00,
2013-06-19 02:51:00,65.3,56.0,29.87,SSW,202,0.0,0.0,72,0.00,,---,0.00,VWS V14.01,2013-06-19 07:51:00,
2013-06-19 02:56:00,65.3,56.4,29.87,SE,135,0.7,0.7,73,0.00,,---,0.00,VWS V14.01,2013-06-19 07:56:00,
2013-06-19 03:01:00,65.5,56.6,29.87,SSE,158,0.4,0.4,73,0.00,,---,0.00,VWS V14.01,2013-06-19 08:01:00,
2013-06-19 03:06:00,65.7,57.9,29.87,South,180,1.1,1.1,76,0.00,,---,0.00,VWS V14.01,2013-06-19 08:06:00,
2013-06-19 03:11:00,65.7,57.2,29.87,SSE,158,0.7,0.7,74,0.00,,---,0.00,VWS V14.01,2013-06-19 08:11:00,
2013-06-19 03:16:00,65.9,57.4,29.87,SE,135,0.2,0.2,74,0.00,,---,0.00,VWS V14.01,2013-06-19 08:16:00,
2013-06-19 03:21:00,65.9,57.4,29.87,ESE,112,0.4,0.4,74,0.00,,---,0.00,VWS V14.01,2013-06-19 08:21:00,
2013-06-19 03:26:00,65.9,57.4,29.87,SE,135,0.4,0.4,74,0.00,,---,0.00,VWS V14.01,2013-06-19 08:26:00,
2013-06-19 03:31:00,65.9,57.8,29.87,SE,135,1.3,1.3,75,0.00,,---,0.00,VWS V14.01,2013-06-19 08:31:00,
2013-06-19 03:36:00,65.9,58.1,29.86,SE,135,1.1,1.1,76,0.00,,---,0.00,VWS V14.01,2013-06-19 08:36:00,
2013-06-19 03:41:00,65.9,58.1,29.87,SSE,158,1.1,1.6,76,0.00,,---,0.00,VWS V14.01,2013-06-19 08:41:00,
2013-06-19 03:46:00,65.7,58.3,29.87,South,180,1.1,1.3,77,0.00,,---,0.00,VWS V14.01,2013-06-19 08:46:00,
2013-06-19 03:51:00,65.5,58.1,29.87,SSE,158,2.2,2.2,77,0.00,,---,0.00,VWS V14.01,2013-06-19 08:51:00,
2013-06-19 03:56:00,65.3,57.5,29.88,SSW,202,0.7,0.7,76,0.00,,---,0.00,VWS V14.01,2013-06-19 08:56:00,
2013-06-19 04:01:00,65.2,58.2,29.88,South,180,1.3,1.3,78,0.00,,---,0.00,VWS V14.01,2013-06-19 09:01:00,
2013-06-19 04:06:00,65.2,57.8,29.88,SSW,202,0.4,0.4,77,0.00,,---,0.00,VWS V14.01,2013-06-19 09:06:00,
2013-06-19 04:11:00,65.0,58.3,29.89,SSE,158,1.1,1.1,79,0.00,,---,0.00,VWS V14.01,2013-06-19 09:11:00,
2013-06-19 04:16:00,64.8,58.5,29.89,SSE,158,1.3,1.3,80,0.00,,---,0.00,VWS V14.01,2013-06-19 09:16:00,
2013-06-19 04:21:00,64.6,58.3,29.88,SSE,158,2.2,2.2,80,0.00,,---,0.00,VWS V14.01,2013-06-19 09:21:00,
2013-06-19 04:27:00,64.4,58.5,29.88,SSE,158,3.1,3.1,81,0.00,,---,0.00,VWS V14.01,2013-06-19 09:27:00,
2013-06-19 04:32:00,64.4,58.8,29.88,South,180,1.8,1.8,82,0.00,,---,0.00,VWS V14.01,2013-06-19 09:32:00,
2013-06-19 04:37:00,64.4,58.8,29.88,SSE,158,2.0,2.0,82,0.00,,---,0.00,VWS V14.01,2013-06-19 09:37:00,
2013-06-19 04:42:00,64.8,59.2,29.88,SSW,202,2.9,2.9,82,0.00,,---,0.00,VWS V14.01,2013-06-19 09:42:00,
2013-06-19 04:47:00,64.8,59.2,29.88,SSE,158,3.4,3.4,82,0.00,,---,0.00,VWS V14.01,2013-06-19 09:47:00,
2013-06-19 04:52:00,64.8,59.2,29.88,SE,135,3.1,3.1,82,0.00,,---,0.00,VWS V14.01,2013-06-19 09:52:00,
2013-06-19 04:57:00,64.8,59.2,29.88,SSE,158,1.8,1.8,82,0.00,,---,0.00,VWS V14.01,2013-06-19 09:57:00,
2013-06-19 05:02:00,64.8,59.5,29.88,SSE,158,2.5,2.5,83,0.00,,---,0.00,VWS V14.01,2013-06-19 10:02:00,
2013-06-19 05:07:00,64.8,59.9,29.88,SE,135,2.5,2.5,84,0.00,,---,0.00,VWS V14.01,2013-06-19 10:07:00,
2013-06-19 05:12:00,64.8,59.5,29.88,SSE,158,3.4,3.4,83,0.00,,---,0.00,VWS V14.01,2013-06-19 10:12:00,
2013-06-19 05:17:00,64.8,59.5,29.88,South,180,1.1,1.1,83,0.00,,---,0.00,VWS V14.01,2013-06-19 10:17:00,
2013-06-19 05:22:00,64.8,59.5,29.88,SSE,158,2.9,2.9,83,0.00,,---,0.00,VWS V14.01,2013-06-19 10:22:00,
2013-06-19 05:27:00,64.8,59.9,29.89,SSE,158,1.8,1.8,84,0.00,,---,0.00,VWS V14.01,2013-06-19 10:27:00,
2013-06-19 05:32:00,64.8,59.5,29.88,SSE,158,1.6,1.6,83,0.00,,---,0.00,VWS V14.01,2013-06-19 10:32:00,
2013-06-19 05:37:00,64.8,59.2,29.88,SE,135,1.6,1.6,82,0.00,,---,0.00,VWS V14.01,2013-06-19 10:37:00,
2013-06-19 05:42:00,64.8,59.2,29.88,ESE,112,2.2,2.2,82,0.00,,---,0.00,VWS V14.01,2013-06-19 10:42:00,
2013-06-19 05:47:00,64.8,59.2,29.88,SE,135,2.5,2.5,82,0.00,,---,0.00,VWS V14.01,2013-06-19 10:47:00,
2013-06-19 05:52:00,64.8,59.2,29.88,ESE,112,1.8,1.8,82,0.00,,---,0.00,VWS V14.01,2013-06-19 10:52:00,
2013-06-19 05:57:00,65.0,59.7,29.88,SE,135,2.7,2.7,83,0.00,,---,0.00,VWS V14.01,2013-06-19 10:57:00,
2013-06-19 06:02:00,65.2,59.6,29.88,SSE,158,2.0,2.0,82,0.00,,---,0.00,VWS V14.01,2013-06-19 11:02:00,
2013-06-19 06:07:00,65.2,59.9,29.88,SSE,158,2.5,2.5,83,0.00,,---,0.00,VWS V14.01,2013-06-19 11:07:00,
2013-06-19 06:12:00,65.2,59.6,29.88,SSE,158,2.5,2.5,82,0.00,,---,0.00,VWS V14.01,2013-06-19 11:12:00,
2013-06-19 06:17:00,65.0,59.7,29.88,South,180,3.4,3.4,83,0.00,,---,0.00,VWS V14.01,2013-06-19 11:17:00,
2013-06-19 06:22:00,65.0,60.0,29.88,ESE,112,2.5,2.5,84,0.00,,---,0.00,VWS V14.01,2013-06-19 11:22:00,
2013-06-19 06:27:00,65.0,60.0,29.88,SSE,158,2.5,2.5,84,0.00,,---,0.00,VWS V14.01,2013-06-19 11:27:00,
2013-06-19 06:32:00,65.0,60.0,29.88,SSE,158,2.0,2.0,84,0.00,,---,0.00,VWS V14.01,2013-06-19 11:32:00,
2013-06-19 06:37:00,65.2,60.2,29.88,SSE,158,2.5,2.5,84,0.00,,---,0.00,VWS V14.01,2013-06-19 11:37:00,
2013-06-19 06:42:00,65.3,60.3,29.89,SSE,158,0.7,0.7,84,0.00,,---,0.00,VWS V14.01,2013-06-19 11:42:00,
2013-06-19 06:47:00,65.3,60.0,29.89,SSE,158,1.3,1.3,83,0.00,,---,0.00,VWS V14.01,2013-06-19 11:47:00,
2013-06-19 06:52:00,65.5,60.2,29.89,SSE,158,2.5,2.5,83,0.00,,---,0.00,VWS V14.01,2013-06-19 11:52:00,
2013-06-19 06:57:00,65.5,60.2,29.88,SE,135,1.8,1.8,83,0.00,,---,0.00,VWS V14.01,2013-06-19 11:57:00,
2013-06-19 07:02:00,65.7,60.4,29.89,SE,135,0.4,0.4,83,0.00,,---,0.00,VWS V14.01,2013-06-19 12:02:00,
2013-06-19 07:07:00,65.7,60.4,29.89,SSE,158,0.9,0.9,83,0.00,,---,0.00,VWS V14.01,2013-06-19 12:07:00,
2013-06-19 07:12:00,65.7,60.1,29.89,SE,135,1.1,1.1,82,0.00,,---,0.00,VWS V14.01,2013-06-19 12:12:00,
2013-06-19 07:17:00,65.7,60.4,29.89,SE,135,1.1,1.1,83,0.00,,---,0.00,VWS V14.01,2013-06-19 12:17:00,
2013-06-19 07:22:00,65.9,60.6,29.89,SSW,202,0.7,0.7,83,0.00,,---,0.00,VWS V14.01,2013-06-19 12:22:00,
2013-06-19 07:27:00,65.9,60.6,29.89,SSE,158,0.9,0.9,83,0.00,,---,0.00,VWS V14.01,2013-06-19 12:27:00,
2013-06-19 07:32:00,66.2,61.2,29.90,South,180,1.1,4.0,84,0.00,,---,0.00,VWS V14.01,2013-06-19 12:32:00,
2013-06-19 07:37:00,66.6,61.6,29.90,SSW,202,0.9,1.8,84,0.00,,---,0.00,VWS V14.01,2013-06-19 12:37:00,
2013-06-19 07:42:00,67.1,61.8,29.90,South,180,2.5,2.5,83,0.00,,---,0.00,VWS V14.01,2013-06-19 12:42:00,
2013-06-19 07:47:00,67.7,62.0,29.90,South,180,3.4,3.4,82,0.00,,---,0.00,VWS V14.01,2013-06-19 12:47:00,
2013-06-19 07:52:00,68.0,62.0,29.90,South,180,2.2,2.2,81,0.00,,---,0.00,VWS V14.01,2013-06-19 12:52:00,
2013-06-19 07:57:00,68.2,61.8,29.90,South,180,5.8,5.8,80,0.00,,---,0.00,VWS V14.01,2013-06-19 12:57:00,
2013-06-19 08:02:00,68.6,61.8,29.90,SSE,158,5.1,5.1,79,0.00,,---,0.00,VWS V14.01,2013-06-19 13:02:00,
2013-06-19 08:07:00,69.1,62.0,29.90,SSE,158,3.6,3.6,78,0.00,,---,0.00,VWS V14.01,2013-06-19 13:07:00,
2013-06-19 08:13:00,69.5,62.0,29.90,SSE,158,3.8,3.8,77,0.00,,---,0.00,VWS V14.01,2013-06-19 13:13:00,
2013-06-19 08:18:00,69.8,62.3,29.90,SSE,158,3.8,3.8,77,0.00,,---,0.00,VWS V14.01,2013-06-19 13:18:00,
2013-06-19 08:23:00,70.4,62.1,29.90,SSE,158,2.7,2.7,75,0.00,,---,0.00,VWS V14.01,2013-06-19 13:23:00,
2013-06-19 08:28:00,70.9,62.6,29.90,SSE,158,3.8,3.8,75,0.00,,---,0.00,VWS V14.01,2013-06-19 13:28:00,
2013-06-19 08:33:00,71.3,62.2,29.89,SSE,158,1.3,1.3,73,0.00,,---,0.00,VWS V14.01,2013-06-19 13:33:00,
2013-06-19 08:38:00,72.0,62.5,29.89,ENE,68,2.7,2.7,72,0.00,,---,0.00,VWS V14.01,2013-06-19 13:38:00,
2013-06-19 08:43:00,72.4,63.3,29.89,ESE,112,2.0,2.0,73,0.00,,---,0.00,VWS V14.01,2013-06-19 13:43:00,
2013-06-19 08:48:00,73.1,64.3,29.89,SSW,202,1.8,1.8,74,0.00,,---,0.00,VWS V14.01,2013-06-19 13:48:00,
2013-06-19 08:53:00,73.6,63.6,29.90,SSE,158,5.8,5.8,71,0.00,,---,0.00,VWS V14.01,2013-06-19 13:53:00,
2013-06-19 08:58:00,73.8,63.8,29.89,South,180,6.5,6.5,71,0.00,,---,0.00,VWS V14.01,2013-06-19 13:58:00,
2013-06-19 09:03:00,74.2,64.2,29.89,South,180,3.8,3.8,71,0.00,,---,0.00,VWS V14.01,2013-06-19 14:03:00,
2013-06-19 09:08:00,74.3,63.5,29.89,SW,225,4.0,4.0,69,0.00,,---,0.00,VWS V14.01,2013-06-19 14:08:00,
2013-06-19 09:13:00,74.5,64.1,29.89,South,180,5.8,5.8,70,0.00,,---,0.00,VWS V14.01,2013-06-19 14:13:00,
2013-06-19 09:18:00,75.1,63.8,29.89,South,180,4.9,4.9,68,0.00,,---,0.00,VWS V14.01,2013-06-19 14:18:00,
2013-06-19 09:23:00,75.4,64.5,29.89,SSE,158,5.6,5.6,69,0.00,,---,0.00,VWS V14.01,2013-06-19 14:23:00,
2013-06-19 09:28:00,76.1,64.4,29.89,SE,135,4.7,4.7,67,0.00,,---,0.00,VWS V14.01,2013-06-19 14:28:00,
2013-06-19 09:33:00,77.4,65.6,29.89,SE,135,5.6,5.6,67,0.00,,---,0.00,VWS V14.01,2013-06-19 14:33:00,
2013-06-19 09:38:00,78.1,64.0,29.89,South,180,5.4,5.4,62,0.00,,---,0.00,VWS V14.01,2013-06-19 14:38:00,
2013-06-19 09:43:00,78.8,64.7,29.89,South,180,6.3,6.3,62,0.00,,---,0.00,VWS V14.01,2013-06-19 14:43:00,
2013-06-19 09:48:00,79.6,65.4,29.90,SSW,202,6.0,6.0,62,0.00,,---,26.80,VWS V14.01,2013-06-19 14:48:00,
2013-06-19 09:53:00,79.9,64.3,29.89,South,180,6.7,6.7,59,0.00,,---,0.00,VWS V14.01,2013-06-19 14:53:00,
2013-06-19 09:58:00,80.3,64.7,29.89,South,180,8.9,8.9,59,0.00,,---,0.00,VWS V14.01,2013-06-19 14:58:00,
2013-06-19 10:03:00,80.6,64.5,29.89,South,180,8.5,8.5,58,0.00,,---,0.00,VWS V14.01,2013-06-19 15:03:00,
2013-06-19 10:08:00,81.0,64.8,29.89,SSE,158,5.4,5.4,58,0.00,,---,0.00,VWS V14.01,2013-06-19 15:08:00,
2013-06-19 10:13:00,81.0,65.8,29.89,SE,135,4.5,4.5,60,0.00,,---,0.00,VWS V14.01,2013-06-19 15:13:00,
2013-06-19 10:18:00,81.0,65.3,29.89,South,180,4.0,8.3,59,0.00,,---,0.00,VWS V14.01,2013-06-19 15:18:00,
2013-06-19 10:23:00,81.0,66.3,29.89,West,270,2.2,2.2,61,0.00,,---,0.00,VWS V14.01,2013-06-19 15:23:00,
2013-06-19 10:28:00,80.8,65.2,29.89,WSW,248,7.4,7.4,59,0.00,,---,0.00,VWS V14.01,2013-06-19 15:28:00,
2013-06-19 10:33:00,80.5,65.3,29.89,SW,225,5.6,5.6,60,0.00,,---,0.00,VWS V14.01,2013-06-19 15:33:00,
2013-06-19 10:38:00,80.6,65.9,29.88,SSE,158,7.2,7.2,61,0.00,,---,0.00,VWS V14.01,2013-06-19 15:38:00,
2013-06-19 10:43:00,81.2,65.0,29.88,SSE,158,7.2,7.2,58,0.00,,---,0.00,VWS V14.01,2013-06-19 15:43:00,
2013-06-19 10:48:00,80.6,65.0,29.88,East,90,8.5,8.5,59,0.00,,---,0.00,VWS V14.01,2013-06-19 15:48:00,
2013-06-19 10:53:00,79.9,65.3,29.89,South,180,5.4,5.4,61,0.00,,---,0.00,VWS V14.01,2013-06-19 15:53:00,
2013-06-19 10:58:00,79.2,65.1,29.89,South,180,5.6,5.6,62,0.00,,---,0.00,VWS V14.01,2013-06-19 15:58:00,
2013-06-19 11:03:00,79.2,65.1,29.89,SSE,158,2.5,2.5,62,0.00,,---,0.00,VWS V14.01,2013-06-19 16:03:00,
2013-06-19 11:08:00,79.9,65.3,29.89,SSE,158,3.8,3.8,61,0.00,,---,0.00,VWS V14.01,2013-06-19 16:08:00,
2013-06-19 11:13:00,80.5,65.3,29.89,SSE,158,7.4,7.4,60,0.00,,---,0.00,VWS V14.01,2013-06-19 16:13:00,
2013-06-19 11:18:00,80.6,65.0,29.88,SSE,158,5.4,5.4,59,0.00,,---,0.00,VWS V14.01,2013-06-19 16:18:00,
2013-06-19 11:23:00,81.2,65.5,29.88,WSW,248,6.0,6.0,59,0.00,,---,0.00,VWS V14.01,2013-06-19 16:23:00,
2013-06-19 11:28:00,82.3,65.6,29.88,SE,135,6.9,6.9,57,0.00,,---,0.00,VWS V14.01,2013-06-19 16:28:00,
2013-06-19 11:33:00,83.2,66.4,29.88,SSE,158,6.7,6.7,57,0.00,,---,0.00,VWS V14.01,2013-06-19 16:33:00,
2013-06-19 11:38:00,84.4,67.0,29.88,East,90,5.4,5.4,56,0.00,,---,0.00,VWS V14.01,2013-06-19 16:38:00,
2013-06-19 11:43:00,83.9,66.0,29.88,South,180,9.2,9.2,55,0.00,,---,0.00,VWS V14.01,2013-06-19 16:43:00,
2013-06-19 11:48:00,83.0,65.7,29.88,SE,135,10.5,10.5,56,0.00,,---,0.00,VWS V14.01,2013-06-19 16:48:00,
2013-06-19 11:53:00,83.2,66.4,29.88,SSW,202,5.4,5.4,57,0.00,,---,0.00,VWS V14.01,2013-06-19 16:53:00,
2013-06-19 11:58:00,84.2,67.3,29.88,SE,135,6.3,6.3,57,0.00,,---,0.00,VWS V14.01,2013-06-19 16:58:00,
2013-06-19 12:04:00,84.6,67.2,29.88,SE,135,9.2,9.2,56,0.00,,---,0.00,VWS V14.01,2013-06-19 17:04:00,
2013-06-19 12:09:00,85.1,67.7,29.88,WSW,248,5.4,5.4,56,0.00,,---,0.00,VWS V14.01,2013-06-19 17:09:00,
2013-06-19 12:14:00,85.7,67.7,29.87,SE,135,8.7,8.7,55,0.00,,---,0.00,VWS V14.01,2013-06-19 17:14:00,
2013-06-19 12:19:00,84.4,67.0,29.87,SSE,158,4.7,4.7,56,0.00,,---,26.80,VWS V14.01,2013-06-19 17:19:00,
2013-06-19 12:24:00,83.9,67.1,29.87,SSE,158,7.6,7.6,57,0.00,,---,0.00,VWS V14.01,2013-06-19 17:24:00,
2013-06-19 12:29:00,84.2,66.8,29.87,SSE,158,7.2,7.2,56,0.00,,---,0.00,VWS V14.01,2013-06-19 17:29:00,
2013-06-19 12:34:00,84.1,66.7,29.87,SE,135,8.7,8.7,56,0.00,,---,0.00,VWS V14.01,2013-06-19 17:34:00,
2013-06-19 12:39:00,84.6,67.2,29.87,SE,135,6.3,6.3,56,0.00,,---,0.00,VWS V14.01,2013-06-19 17:39:00,
2013-06-19 12:44:00,84.4,67.0,29.87,SSW,202,2.5,2.5,56,0.00,,---,0.00,VWS V14.01,2013-06-19 17:44:00,
2013-06-19 12:49:00,84.4,67.5,29.87,SSW,202,6.9,6.9,57,0.00,,---,0.00,VWS V14.01,2013-06-19 17:49:00,
2013-06-19 12:54:00,84.8,67.4,29.87,SSE,158,8.5,8.5,56,0.00,,---,0.00,VWS V14.01,2013-06-19 17:54:00,
2013-06-19 12:59:00,84.2,66.8,29.87,SSE,158,9.6,9.6,56,0.00,,---,0.00,VWS V14.01,2013-06-19 17:59:00,
2013-06-19 13:04:00,84.1,67.2,29.87,SSE,158,6.0,6.0,57,0.00,,---,0.00,VWS V14.01,2013-06-19 18:04:00,
2013-06-19 13:09:00,84.4,68.0,29.86,SSE,158,6.3,6.3,58,0.00,,---,0.00,VWS V14.01,2013-06-19 18:09:00,
2013-06-19 13:14:00,84.4,67.0,29.86,SE,135,7.4,7.4,56,0.00,,---,0.00,VWS V14.01,2013-06-19 18:14:00,
2013-06-19 13:19:00,85.0,68.1,29.86,SSE,158,6.9,6.9,57,0.00,,---,0.00,VWS V14.01,2013-06-19 18:19:00,
2013-06-19 13:24:00,85.3,68.3,29.86,SSW,202,5.4,5.4,57,0.00,,---,0.00,VWS V14.01,2013-06-19 18:24:00,
2013-06-19 13:29:00,85.5,68.0,29.86,East,90,3.1,3.1,56,0.00,,---,0.00,VWS V14.01,2013-06-19 18:29:00,
2013-06-19 13:34:00,85.7,67.2,29.86,SE,135,3.1,3.1,54,0.00,,---,0.00,VWS V14.01,2013-06-19 18:34:00,
2013-06-19 13:39:00,85.3,66.8,29.86,South,180,6.7,6.7,54,0.00,,---,0.00,VWS V14.01,2013-06-19 18:39:00,
2013-06-19 13:44:00,84.6,66.1,29.85,South,180,6.7,6.7,54,0.00,,---,0.00,VWS V14.01,2013-06-19 18:44:00,
2013-06-19 13:49:00,84.2,66.3,29.85,SE,135,10.1,10.1,55,0.00,,---,0.00,VWS V14.01,2013-06-19 18:49:00,
2013-06-19 13:54:00,84.2,66.3,29.85,SE,135,9.8,9.8,55,0.00,,---,0.00,VWS V14.01,2013-06-19 18:54:00,
2013-06-19 13:59:00,85.0,67.0,29.85,SE,135,4.7,4.7,55,0.00,,---,0.00,VWS V14.01,2013-06-19 18:59:00,
2013-06-19 14:04:00,86.2,68.2,29.85,South,180,5.8,5.8,55,0.00,,---,0.00,VWS V14.01,2013-06-19 19:04:00,
2013-06-19 14:09:00,86.6,66.9,29.85,SE,135,3.6,3.6,52,0.00,,---,0.00,VWS V14.01,2013-06-19 19:09:00,
2013-06-19 14:14:00,86.8,67.1,29.84,ESE,112,6.7,6.7,52,0.00,,---,0.00,VWS V14.01,2013-06-19 19:14:00,
2013-06-19 14:19:00,87.1,66.8,29.85,SSE,158,9.2,9.2,51,0.00,,---,0.00,VWS V14.01,2013-06-19 19:19:00,
2013-06-19 14:24:00,87.1,66.8,29.85,WSW,248,6.7,6.7,51,0.00,,---,0.00,VWS V14.01,2013-06-19 19:24:00,
2013-06-19 14:29:00,86.8,67.1,29.84,SSE,158,7.4,7.4,52,0.00,,---,0.00,VWS V14.01,2013-06-19 19:29:00,
2013-06-19 14:34:00,87.1,66.8,29.84,West,270,4.0,4.0,51,0.00,,---,0.00,VWS V14.01,2013-06-19 19:34:00,
2013-06-19 14:39:00,87.7,67.3,29.84,South,180,3.8,3.8,51,0.00,,---,0.00,VWS V14.01,2013-06-19 19:39:00,
2013-06-19 14:44:00,87.8,66.3,29.84,ESE,112,8.1,8.1,49,0.00,,---,0.00,VWS V14.01,2013-06-19 19:44:00,
2013-06-19 14:49:00,87.7,66.2,29.84,SE,135,6.9,6.9,49,0.00,,---,0.00,VWS V14.01,2013-06-19 19:49:00,
2013-06-19 14:54:00,87.5,66.0,29.85,South,180,7.6,7.6,49,0.00,,---,0.00,VWS V14.01,2013-06-19 19:54:00,
2013-06-19 14:59:00,87.7,66.2,29.84,SSE,158,6.0,6.0,49,0.00,,---,0.00,VWS V14.01,2013-06-19 19:59:00,
2013-06-19 15:04:00,87.5,66.0,29.85,SE,135,6.0,6.0,49,0.00,,---,0.00,VWS V14.01,2013-06-19 20:04:00,
2013-06-19 15:09:00,87.5,66.0,29.84,SSE,158,6.0,6.0,49,0.00,,---,0.00,VWS V14.01,2013-06-19 20:09:00,
2013-06-19 15:14:00,86.8,65.9,29.84,ENE,68,4.0,4.0,50,0.00,,---,0.00,VWS V14.01,2013-06-19 20:14:00,
2013-06-19 15:19:00,86.6,65.2,29.84,SSW,202,5.6,5.6,49,0.00,,---,0.00,VWS V14.01,2013-06-19 20:19:00,
2013-06-19 15:24:00,86.0,64.6,29.84,SSE,158,5.1,5.1,49,0.00,,---,0.00,VWS V14.01,2013-06-19 20:24:00,
2013-06-19 15:29:00,85.9,65.1,29.84,SSE,158,7.2,7.2,50,0.00,,---,0.00,VWS V14.01,2013-06-19 20:29:00,
2013-06-19 15:35:00,86.4,65.0,29.84,SW,225,5.4,5.4,49,0.00,,---,0.00,VWS V14.01,2013-06-19 20:35:00,
2013-06-19 15:40:00,86.8,64.2,29.84,SSE,158,6.3,6.3,47,0.00,,---,0.00,VWS V14.01,2013-06-19 20:40:00,
2013-06-19 15:45:00,87.3,65.2,29.84,West,270,6.5,6.5,48,0.00,,---,0.00,VWS V14.01,2013-06-19 20:45:00,
2013-06-19 15:50:00,87.3,65.2,29.83,South,180,7.4,7.4,48,0.00,,---,0.00,VWS V14.01,2013-06-19 20:50:00,
2013-06-19 15:55:00,87.3,65.8,29.83,SSE,158,8.9,8.9,49,0.00,,---,0.00,VWS V14.01,2013-06-19 20:55:00,
2013-06-19 16:00:00,87.3,65.2,29.83,SE,135,6.5,6.5,48,0.00,,---,0.00,VWS V14.01,2013-06-19 21:00:00,
2013-06-19 16:05:00,87.5,65.4,29.83,SSW,202,5.8,5.8,48,0.00,,---,0.00,VWS V14.01,2013-06-19 21:05:00,
2013-06-19 16:10:00,87.5,64.8,29.83,SSE,158,4.7,4.7,47,0.00,,---,0.00,VWS V14.01,2013-06-19 21:10:00,
2013-06-19 16:15:00,87.7,65.6,29.83,SSW,202,3.8,3.8,48,0.00,,---,0.00,VWS V14.01,2013-06-19 21:15:00,
2013-06-19 16:20:00,88.0,65.3,29.83,WSW,248,5.8,5.8,47,0.00,,---,0.00,VWS V14.01,2013-06-19 21:20:00,
2013-06-19 16:25:00,88.4,65.6,29.83,WSW,248,5.8,5.8,47,0.00,,---,0.00,VWS V14.01,2013-06-19 21:25:00,
2013-06-19 16:30:00,88.7,64.7,29.83,West,270,4.9,4.9,45,0.00,,---,0.00,VWS V14.01,2013-06-19 21:30:00,
2013-06-19 16:35:00,88.9,64.8,29.82,NNE,22,4.3,4.3,45,0.00,,---,0.00,VWS V14.01,2013-06-19 21:35:00,
2013-06-19 16:40:00,89.1,64.4,29.82,SW,225,8.9,8.9,44,0.00,,---,0.00,VWS V14.01,2013-06-19 21:40:00,
2013-06-19 16:45:00,88.0,64.7,29.82,SSW,202,4.0,4.0,46,0.00,,---,0.00,VWS V14.01,2013-06-19 21:45:00,
2013-06-19 16:50:00,87.5,65.4,29.82,WSW,248,4.3,4.3,48,0.00,,---,0.00,VWS V14.01,2013-06-19 21:50:00,
2013-06-19 16:55:00,87.8,65.1,29.81,South,180,6.9,6.9,47,0.00,,---,0.00,VWS V14.01,2013-06-19 21:55:00,
2013-06-19 17:00:00,86.8,64.2,29.81,SSW,202,8.7,8.7,47,0.00,,---,0.00,VWS V14.01,2013-06-19 22:00:00,
2013-06-19 17:05:00,86.2,64.2,29.81,SW,225,4.0,4.7,48,0.00,,---,0.00,VWS V14.01,2013-06-19 22:05:00,
2013-06-19 17:10:00,85.7,64.4,29.81,South,180,7.4,7.4,49,0.00,,---,0.00,VWS V14.01,2013-06-19 22:10:00,
2013-06-19 17:15:00,85.9,64.0,29.81,SSE,158,6.9,9.8,48,0.00,,---,0.00,VWS V14.01,2013-06-19 22:15:00,
2013-06-19 17:20:00,86.6,64.6,29.81,SW,225,8.1,8.1,48,0.00,,---,0.00,VWS V14.01,2013-06-19 22:20:00,
2013-06-19 17:25:00,86.6,64.0,29.81,WSW,248,6.0,6.0,47,0.00,,---,0.00,VWS V14.01,2013-06-19 22:25:00,
2013-06-19 17:30:00,86.8,63.6,29.81,South,180,9.2,9.2,46,0.00,,---,0.00,VWS V14.01,2013-06-19 22:30:00,
2013-06-19 17:35:00,86.2,63.6,29.81,SSW,202,8.1,8.1,47,0.00,,---,0.00,VWS V14.01,2013-06-19 22:35:00,
2013-06-19 17:40:00,86.2,63.6,29.81,WSW,248,7.6,7.6,47,0.00,,---,0.00,VWS V14.01,2013-06-19 22:40:00,
2013-06-19 17:45:00,86.2,63.6,29.81,WNW,292,9.4,9.4,47,0.00,,---,0.00,VWS V14.01,2013-06-19 22:45:00,
2013-06-19 17:50:00,86.0,63.4,29.80,SSE,158,7.6,7.6,47,0.00,,---,0.00,VWS V14.01,2013-06-19 22:50:00,
2013-06-19 17:55:00,86.4,63.2,29.80,WSW,248,7.2,7.2,46,0.00,,---,0.00,VWS V14.01,2013-06-19 22:55:00,
2013-06-19 18:00:00,86.4,62.6,29.80,SSW,202,6.0,6.0,45,0.00,,---,0.00,VWS V14.01,2013-06-19 23:00:00,
2013-06-19 18:05:00,86.4,63.2,29.80,SSW,202,8.7,8.7,46,0.00,,---,0.00,VWS V14.01,2013-06-19 23:05:00,
2013-06-19 18:10:00,86.4,61.9,29.80,SE,135,6.9,6.9,44,0.00,,---,0.00,VWS V14.01,2013-06-19 23:10:00,
2013-06-19 18:15:00,86.4,62.6,29.80,SSE,158,7.6,7.6,45,0.00,,---,0.00,VWS V14.01,2013-06-19 23:15:00,
2013-06-19 18:20:00,86.4,61.9,29.80,ESE,112,10.1,10.1,44,0.00,,---,0.00,VWS V14.01,2013-06-19 23:20:00,
2013-06-19 18:25:00,86.0,62.8,29.80,South,180,7.2,7.2,46,0.00,,---,0.00,VWS V14.01,2013-06-19 23:25:00,
2013-06-19 18:30:00,85.7,62.6,29.79,SSE,158,8.1,8.1,46,0.00,,---,0.00,VWS V14.01,2013-06-19 23:30:00,
2013-06-19 18:35:00,85.7,62.6,29.79,SW,225,4.5,4.5,46,0.00,,---,0.00,VWS V14.01,2013-06-19 23:35:00,
2013-06-19 18:40:00,85.7,62.6,29.80,WSW,248,5.1,5.1,46,0.00,,---,0.00,VWS V14.01,2013-06-19 23:40:00,
2013-06-19 18:45:00,85.7,62.6,29.80,WSW,248,8.3,8.3,46,0.00,,---,0.00,VWS V14.01,2013-06-19 23:45:00,
2013-06-19 18:50:00,85.3,62.2,29.80,SW,225,8.3,8.3,46,0.00,,---,0.00,VWS V14.01,2013-06-19 23:50:00,
2013-06-19 18:55:00,85.3,62.2,29.79,SW,225,6.5,6.5,46,0.00,,---,0.00,VWS V14.01,2013-06-19 23:55:00,
2013-06-19 19:01:00,85.1,62.0,29.80,SSE,158,8.5,8.5,46,0.00,,---,0.00,VWS V14.01,2013-06-20 00:01:00,
2013-06-19 19:06:00,85.0,61.9,29.79,WSW,248,5.8,5.8,46,0.00,,---,0.00,VWS V14.01,2013-06-20 00:06:00,
2013-06-19 19:11:00,85.0,62.5,29.79,SW,225,2.5,2.5,47,0.00,,---,0.00,VWS V14.01,2013-06-20 00:11:00,
2013-06-19 19:16:00,84.8,61.7,29.80,SW,225,7.8,7.8,46,0.00,,---,0.00,VWS V14.01,2013-06-20 00:16:00,
2013-06-19 19:21:00,84.8,62.3,29.80,ESE,112,7.2,7.2,47,0.00,,---,0.00,VWS V14.01,2013-06-20 00:21:00,
2013-06-19 19:26:00,84.8,63.5,29.80,WSW,248,6.0,6.0,49,0.00,,---,0.00,VWS V14.01,2013-06-20 00:26:00,
2013-06-19 19:31:00,84.8,62.3,29.80,South,180,7.4,7.4,47,0.00,,---,0.00,VWS V14.01,2013-06-20 00:31:00,
2013-06-19 19:36:00,84.6,62.2,29.80,South,180,6.5,6.5,47,0.00,,---,0.00,VWS V14.01,2013-06-20 00:36:00,
2013-06-19 19:41:00,84.6,63.3,29.80,South,180,6.3,6.3,49,0.00,,---,0.00,VWS V14.01,2013-06-20 00:41:00,
2013-06-19 19:46:00,84.4,62.6,29.80,South,180,8.9,8.9,48,0.00,,---,0.00,VWS V14.01,2013-06-20 00:46:00,
2013-06-19 19:51:00,84.4,62.6,29.80,SSE,158,11.4,11.4,48,0.00,,---,0.00,VWS V14.01,2013-06-20 00:51:00,
2013-06-19 19:56:00,84.2,63.0,29.80,SE,135,9.2,9.2,49,0.00,,---,0.00,VWS V14.01,2013-06-20 00:56:00,
2013-06-19 20:01:00,83.9,63.3,29.79,SSW,202,4.5,4.5,50,0.00,,---,0.00,VWS V14.01,2013-06-20 01:01:00,
2013-06-19 20:06:00,83.5,63.5,29.79,WSW,248,6.3,6.3,51,0.00,,---,0.00,VWS V14.01,2013-06-20 01:06:00,
2013-06-19 20:11:00,83.3,63.3,29.80,SSW,202,7.2,7.2,51,0.00,,---,0.00,VWS V14.01,2013-06-20 01:11:00,
2013-06-19 20:16:00,83.0,63.6,29.80,South,180,4.0,4.0,52,0.00,,---,0.00,VWS V14.01,2013-06-20 01:16:00,
2013-06-19 20:21:00,82.8,63.4,29.79,SSW,202,8.5,8.5,52,0.00,,---,0.00,VWS V14.01,2013-06-20 01:21:00,
2013-06-19 20:26:00,82.4,63.0,29.79,SSW,202,6.9,6.9,52,0.00,,---,0.00,VWS V14.01,2013-06-20 01:26:00,
2013-06-19 20:31:00,82.1,63.3,29.80,West,270,4.9,4.9,53,0.00,,---,0.00,VWS V14.01,2013-06-20 01:31:00,
2013-06-19 20:36:00,81.7,62.9,29.79,South,180,7.8,7.8,53,0.00,,---,26.80,VWS V14.01,2013-06-20 01:36:00,
2013-06-19 20:41:00,81.4,62.6,29.79,SSE,158,3.8,3.8,53,0.00,,---,0.00,VWS V14.01,2013-06-20 01:41:00,
2013-06-19 20:46:00,81.2,63.0,29.79,South,180,2.7,2.7,54,0.00,,---,0.00,VWS V14.01,2013-06-20 01:46:00,
2013-06-19 20:51:00,81.0,62.8,29.80,SSW,202,2.9,2.9,54,0.00,,---,0.00,VWS V14.01,2013-06-20 01:51:00,
2013-06-19 20:56:00,80.6,62.4,29.80,SSW,202,3.8,3.8,54,0.00,,---,0.00,VWS V14.01,2013-06-20 01:56:00,
2013-06-19 21:01:00,80.5,62.9,29.80,SSE,158,4.3,4.3,55,0.00,,---,0.00,VWS V14.01,2013-06-20 02:01:00,
2013-06-19 21:06:00,80.3,62.7,29.79,South,180,5.4,5.4,55,0.00,,---,0.00,VWS V14.01,2013-06-20 02:06:00,
2013-06-19 21:11:00,80.1,62.5,29.80,SSE,158,3.1,6.0,55,0.00,,---,0.00,VWS V14.01,2013-06-20 02:11:00,
2013-06-19 21:16:00,79.6,62.5,29.80,SSW,202,1.8,1.8,56,0.00,,---,0.00,VWS V14.01,2013-06-20 02:16:00,
2013-06-19 21:21:00,79.2,62.2,29.80,SSE,158,3.4,3.4,56,0.00,,---,0.00,VWS V14.01,2013-06-20 02:21:00,
2013-06-19 21:26:00,79.0,62.5,29.80,SSE,158,3.6,3.6,57,0.00,,---,0.00,VWS V14.01,2013-06-20 02:26:00,
2013-06-19 21:31:00,78.8,62.3,29.80,SSE,158,3.4,3.4,57,0.00,,---,0.00,VWS V14.01,2013-06-20 02:31:00,
2013-06-19 21:36:00,78.5,62.5,29.81,South,180,3.4,3.4,58,0.00,,---,0.00,VWS V14.01,2013-06-20 02:36:00,
2013-06-19 21:41:00,78.3,62.3,29.81,SE,135,2.9,2.9,58,0.00,,---,0.00,VWS V14.01,2013-06-20 02:41:00,
2013-06-19 21:46:00,78.1,62.6,29.81,SSE,158,2.9,2.9,59,0.00,,---,0.00,VWS V14.01,2013-06-20 02:46:00,
2013-06-19 21:51:00,78.1,62.6,29.81,South,180,3.1,3.1,59,0.00,,---,0.00,VWS V14.01,2013-06-20 02:51:00,
2013-06-19 21:56:00,77.9,62.4,29.81,South,180,2.5,2.5,59,0.00,,---,0.00,VWS V14.01,2013-06-20 02:56:00,
2013-06-19 22:01:00,77.8,62.8,29.81,SW,225,3.4,3.4,60,0.00,,---,0.00,VWS V14.01,2013-06-20 03:01:00,
2013-06-19 22:06:00,77.6,62.6,29.82,South,180,3.4,3.4,60,0.00,,---,0.00,VWS V14.01,2013-06-20 03:06:00,
2013-06-19 22:11:00,77.4,62.4,29.82,SE,135,4.7,4.7,60,0.00,,---,0.00,VWS V14.01,2013-06-20 03:11:00,
2013-06-19 22:16:00,77.4,62.9,29.82,ENE,68,4.3,4.3,61,0.00,,---,0.00,VWS V14.01,2013-06-20 03:16:00,
2013-06-19 22:21:00,77.0,62.5,29.83,SSW,202,2.5,2.5,61,0.00,,---,0.00,VWS V14.01,2013-06-20 03:21:00,
2013-06-19 22:26:00,76.9,62.9,29.83,South,180,3.4,3.4,62,0.00,,---,0.00,VWS V14.01,2013-06-20 03:26:00,
2013-06-19 22:31:00,76.7,63.2,29.83,SSE,158,3.6,3.6,63,0.00,,---,0.00,VWS V14.01,2013-06-20 03:31:00,
2013-06-19 22:37:00,76.3,62.8,29.84,SSE,158,2.2,2.2,63,0.00,,---,0.00,VWS V14.01,2013-06-20 03:37:00,
2013-06-19 22:42:00,76.1,62.6,29.84,SSW,202,3.6,3.6,63,0.00,,---,0.00,VWS V14.01,2013-06-20 03:42:00,
2013-06-19 22:47:00,76.0,63.0,29.84,SSE,158,1.8,1.8,64,0.00,,---,0.00,VWS V14.01,2013-06-20 03:47:00,
2013-06-19 22:52:00,75.8,62.8,29.84,SSE,158,1.6,1.6,64,0.00,,---,0.00,VWS V14.01,2013-06-20 03:52:00,
2013-06-19 22:57:00,75.6,63.0,29.84,SSE,158,2.9,3.1,65,0.00,,---,0.00,VWS V14.01,2013-06-20 03:57:00,
2013-06-19 23:01:00,75.4,62.8,29.84,SSE,158,2.5,2.5,65,0.00,,---,0.00,VWS V14.01,2013-06-20 04:01:00,
2013-06-19 23:02:00,75.4,62.8,29.84,SSE,158,2.5,2.5,65,0.00,,---,0.00,VWS V14.01,2013-06-20 04:02:00,
2013-06-19 23:03:00,75.4,62.8,29.84,SE,135,3.4,3.4,65,0.00,,---,0.00,VWS V14.01,2013-06-20 04:03:00,
2013-06-19 23:05:00,75.4,62.8,29.84,SE,135,3.6,3.6,65,0.00,,---,0.00,VWS V14.01,2013-06-20 04:05:00,
2013-06-19 23:10:00,75.2,63.1,29.84,SSE,158,2.5,4.7,66,0.00,,---,0.00,VWS V14.01,2013-06-20 04:10:00,
2013-06-19 23:15:00,74.9,62.8,29.84,SSE,158,1.8,2.2,66,0.00,,---,0.00,VWS V14.01,2013-06-20 04:15:00,
2013-06-19 23:20:00,74.5,63.3,29.84,SE,135,5.1,5.1,68,0.00,,---,0.00,VWS V14.01,2013-06-20 04:20:00,
2013-06-19 23:25:00,74.5,63.7,29.84,SE,135,3.6,3.8,69,0.00,,---,0.00,VWS V14.01,2013-06-20 04:25:00,
2013-06-19 23:30:00,74.3,63.9,29.84,SSE,158,2.5,3.4,70,0.00,,---,0.00,VWS V14.01,2013-06-20 04:30:00,
2013-06-19 23:35:00,74.3,63.9,29.84,SE,135,4.7,4.7,70,0.00,,---,0.00,VWS V14.01,2013-06-20 04:35:00,
2013-06-19 23:40:00,74.2,64.2,29.84,SSE,158,2.5,3.6,71,0.00,,---,0.00,VWS V14.01,2013-06-20 04:40:00,
2013-06-19 23:45:00,74.0,64.0,29.85,SSE,158,5.1,5.1,71,0.00,,---,0.00,VWS V14.01,2013-06-20 04:45:00,
2013-06-19 23:50:00,74.0,64.4,29.84,SE,135,3.4,4.3,72,0.00,,---,0.00,VWS V14.01,2013-06-20 04:50:00,
2013-06-19 23:55:00,74.0,64.4,29.85,SSE,158,3.4,4.0,72,0.00,,---,0.00,VWS V14.01,2013-06-20 04:55:00,